This is the latest recevied weather packets stored in our database for station/object W4FXD. If no packets are shown the sender has not sent any weather packets the latest 10 day(s).
| Time | Temp. | Humidity | Pressure | Rain* | Wind** | Luminosity | Snow |
|---|---|---|---|---|---|---|---|
| 1777656310 | 19.44° C | 45% | 1014.2 hPa | 0 mm | - | 762 W/m² | - |
| 1777656006 | 18.89° C | 43% | 1014.2 hPa | 0 mm | - | 812 W/m² | - |
| 1777655702 | 19.44° C | 45% | 1014.4 hPa | 0 mm | - | 618 W/m² | - |
| 1777655399 | 18.33° C | 47% | 1014.4 hPa | 0 mm | - | 723 W/m² | - |
| 1777655096 | 18.89° C | 46% | 1014.3 hPa | 0 mm | - | 816 W/m² | - |
| 1777654793 | 19.44° C | 50% | 1014.4 hPa | 0 mm | - | 810 W/m² | - |
| 1777654491 | 19.44° C | 45% | 1014.4 hPa | 0 mm | - | 712 W/m² | - |
| 1777654188 | 20° C | 44% | 1014.4 hPa | 0 mm | - | 773 W/m² | - |
| 1777653886 | 19.44° C | 44% | 1014.5 hPa | 0 mm | - | 718 W/m² | - |
| 1777653583 | 19.44° C | 46% | 1014.4 hPa | 0 mm | - | 760 W/m² | - |
| 1777653279 | 18.89° C | 44% | 1014.5 hPa | 0 mm | - | 757 W/m² | - |
| 1777652976 | 18.33° C | 46% | 1014.8 hPa | 0 mm | - | 811 W/m² | - |
| 1777652672 | 17.78° C | 47% | 1014.7 hPa | 0 mm | - | 869 W/m² | - |
| 1777652369 | 17.78° C | 46% | 1014.8 hPa | 0 mm | - | 864 W/m² | - |
| 1777652066 | 18.33° C | 47% | 1014.9 hPa | 0 mm | - | 871 W/m² | - |
| 1777651763 | 17.78° C | 50% | 1015.1 hPa | 0 mm | - | 872 W/m² | - |
| 1777651459 | 18.33° C | 49% | 1014.8 hPa | 0 mm | - | 850 W/m² | - |
| 1777651157 | 17.78° C | 51% | 1015 hPa | 0 mm | - | 858 W/m² | - |
| 1777650854 | 17.78° C | 49% | 1014.9 hPa | 0 mm | - | 776 W/m² | - |
| 1777650550 | 17.78° C | 51% | 1014.9 hPa | 0 mm | - | 675 W/m² | - |
| 1777650248 | 17.22° C | 50% | 1014.9 hPa | 0 mm | - | 694 W/m² | - |
| 1777649945 | 17.22° C | 51% | 1014.9 hPa | 0 mm | - | 816 W/m² | - |
| 1777649643 | 18.33° C | 51% | 1015.2 hPa | 0 mm | - | 855 W/m² | - |
| 1777649337 | 17.22° C | 53% | 1015.2 hPa | 0 mm | - | 868 W/m² | - |
| 1777649035 | 17.22° C | 55% | 1015 hPa | 0 mm | - | 888 W/m² | - |
* Rain latest hour (hover to see other rain measurements)
** Current wind speed in m/s (hover to see current wind gust speed)